www.pogodaiklimat.ru

Погода и климат >> Архив погоды >> Россия >> Ростовская область >> Ростов-на-Дону


АРХИВ ПОГОДЫ в Ростове-на-Дону

Время (UTC), дата Ветер
(напр.,м/с)
 
Видим.   Явления Облачность Т
(С)
Тd
(С)
f
(%)
Тe
(С)
Тes
(С)
Комфортность P
(гПа)
Po
(гПа)
Тmin
(С)
Tmax
(С)
R
(мм)
R24
(мм)
S
(см)
00 9.12 н/о дымка [диам. изморози 0 мм] 1/0
[Ci fib]
-2.4 -3.0 96 1021.0 1010.4
03 9.12 н/о дымка [диам. изморози 1 мм] ясно -2.9 -3.2 98 1019.9 1009.3 -3.0 3
06 9.12 н/о [диам. изморози 1 мм] 6/0
[Ac trans]
-3.0 -3.5 96 1020.0 1009.4 -3.4
09 9.12 н/о [диам. изморози 0 мм] 8/6 600 м
[Sc diur, vesp Ac trans]
+1.1 -1.7 82 1018.6 1008.2
12 9.12 н/о 8/5 600 м
[Sc diur, vesp Ac trans]
+3.0 -0.7 77 1017.6 1007.2
15 9.12 н/о 4/0
[Ac trans]
+1.2 -0.6 88 1016.9 1006.5 +3.4
18 9.12 н/о дымка 8/5 600 м
[Sc diur, vesp Ac trans]
+0.2 +0.2 100 1016.6 1006.1
21 9.12 н/о дымка 8/5 600 м
[Sc diur, vesp Ac trans]
+0.7 +0.7 100 1015.4 1005.0
00 10.12 н/о дымка 8/5 600 м
[Sc diur, vesp Ac trans]
+0.9 -0.1 93 1014.5 1004.1
03 10.12 н/о дымка 8/5 600 м
[Sc diur, vesp Ac trans]
+0.6 +0.3 98 1013.3 1002.9 -0.1 3
06 10.12 н/о дымка 10/0
[As trans]
+0.9 +0.2 95 1012.7 1002.3
09 10.12 н/о 10/0
[As trans]
+1.6 +0.2 90 1011.3 1001.0
12 10.12 н/о 10/5 600 м
[Sc As trans]
+2.6 +0.9 89 1011.0 1000.7
15 10.12 н/о морось 10/8 600 м
[Sc As trans]
+2.8 +2.2 96 1011.1 1000.8 +2.9 2
18 10.12 н/о ливневой дождь {морось} 10/10 600 м
[Cb cap]
+2.8 +2.9 100 1011.0 1000.7
21 10.12 н/о слабый ливневой дождь 10/10 600 м
[Cb cap]
+3.1 +3.1 100 1010.7 1000.4
00 11.12 н/о 8/8 600 м
[Cb cap]
+2.7 +2.7 100 1011.0 1000.7
03 11.12 н/о туман 10/0
[As trans]
+1.9 +1.9 100 1010.8 1000.5 +1.9 10 2
06 11.12 н/о туман ?/? +0.5 +0.5 100 1011.1 1000.7 +0.5
09 11.12 н/о туман 10/10 300 м
[St]
+0.7 +0.7 100 1009.4 999.0
12 11.12 н/о туман {морось} ?/? +1.7 +1.7 100 1007.1 996.8
15 11.12 н/о слабая морось {туман} туман ?/? +1.7 +1.8 100 1008.5 998.2 +2.1 0.0
18 11.12 н/о туман {ливн. осадки, морось} 10/9 300 м
[St Ac und]
+1.4 +1.4 100 1007.5 997.2
21 11.12 н/о в посл. час морось {туман} 10/8 300 м
[St Ac und]
+1.6 +1.6 100 1007.4 997.1
00 12.12 н/о слабый ливневой дождь 10/8 600 м
[Cb calv Ac trans]
+2.4 +2.4 100 1006.7 996.4
03 12.12 н/о 1007.0 996.7
06 12.12 н/о в посл. час ливневой дождь 6/5 600 м
[Cb calv Ac trans]
+4.2 +1.8 84 1007.6 997.4
09 12.12 н/о 8/6 600 м
[Sc Ac trans]
+3.7 +0.4 79 1008.0 997.8
12 12.12 н/о 10/8 600 м
[Sc Ac und]
+2.9 +0.5 84 1008.9 998.6
15 12.12 н/о слабая морось 10/6 300 м
[St Ac und]
+2.2 +0.6 89 1011.0 1000.7 +5.8 1
18 12.12 н/о {морось} 10/6 600 м
[Cb calv Ac und]
+1.9 -0.2 86 1012.2 1001.9
21 12.12 н/о 9/6 600 м
[Cb calv Ac trans]
+1.8 -0.3 86 1014.3 1003.9
00 13.12 н/о 10/4 600 м
[Cb calv Ac und]
+1.3 -1.3 83 1015.0 1004.6
03 13.12 н/о 10/5 600 м
[Cb calv Ac und]
+1.3 -1.6 81 1016.0 1005.6 +1.1
06 13.12 н/о 6/0
[Ac trans]
+1.9 -1.0 81 1017.5 1007.1
09 13.12 н/о 6/4 600 м
[Cb calv Ac trans]
+3.2 -1.7 70 1018.7 1008.3
12 13.12 н/о 8/6 600 м
[Cb calv Ac trans]
+3.2 -1.6 71 1019.7 1009.3
15 13.12 н/о ясно +0.3 -2.8 80 1021.2 1010.7 +3.8
18 13.12 н/о ясно -1.2 -2.6 90 1022.3 1011.7
21 13.12 н/о ясно -2.1 -3.0 94 1022.8 1012.2
00 14.12 н/о 8/6 600 м
[Cb calv Ac trans]
-0.7 -1.4 95 1022.6 1012.0
03 14.12 н/о 10/8 600 м
[Cb calv Ac trans]
+0.1 -1.3 90 1022.0 1011.5 -2.4
06 14.12 н/о 10/8 600 м
[Cb cap Ac und]
+1.1 -0.4 90 1022.7 1012.2
09 14.12 н/о дымка 10/6 600 м
[Cb cap Ac und]
+0.8 +0.1 95 1022.8 1012.3
12 14.12 н/о дымка 4/0
[Ci fib]
+1.3 -0.8 86 1023.3 1012.8
15 14.12 н/о дымка 10/6 600 м
[Cb cap Ac und]
0.0 -1.0 93 1024.4 1013.9 +1.6
18 14.12 н/о дымка 10/5 600 м
[Sc diur, vesp Ac und]
+0.2 -0.9 92 1024.6 1014.1
21 14.12 н/о дымка 10/5 600 м
[Sc diur, vesp Ac und]
0.0 -0.3 98 1024.8 1014.3
00 15.12 н/о туман 10/6 600 м
[Sc diur, vesp Ac und]
-0.1 -0.1 100 1025.3 1014.7
03 15.12 н/о в посл. час туман 10/8 600 м
[Sc diur, vesp Ac und]
-0.7 -0.7 100 1025.8 1015.2 -0.8
06 15.12 н/о {туман} 10/10 300 м
[St]
-0.1 -1.0 94 1026.8 1016.2
09 15.12 н/о 10/6 600 м
[Sc Ac und]
+1.0 -2.2 79 1026.7 1016.2
12 15.12 н/о 5/3 600 м
[Sc Ac trans]
+0.1 -3.1 79 1027.3 1016.7
15 15.12 н/о 6/4 600 м
[Sc Ac trans]
-0.4 -2.4 86 1028.2 1017.6 +1.3
18 15.12 н/о 5/0
[Ac trans]
-2.3 -4.1 87 1029.0 1018.3
21 15.12 н/о 10/5 600 м
[Sc Ac und]
-1.1 -3.8 82 1030.3 1019.6

 

Местоположение метеостанции Ростов-на-Дону (Ростовская область, Россия): широта 47.27 долгота 39.82 высота над уровнем моря 75 м.

В архиве по умолчанию представлена погода в Ростове-на-Дону за последнюю неделю. Архивные данные за месяц целиком и за предыдущие месяцы, начиная с января 2011 года, Вы можете получить, выбрав интересующий диапазон дат из раскрывающегося списка и нажав кнопку "Ввод!".


*Определитесь, кто Вы:
робот инопланетянин человек

Внимание! Время в таблицах - всемирное. Для получения местного времени необходимо прибавить поправку, которая в Ростове-на-Дону равна 3 ч.

Смотрите также архив погоды в соседних городах и на ближайших метеорологических станциях:

Погода в Аэропорту Платов (Ростовская область, Россия) (26 км)
Погода в Шахтах (Ростовская область, Россия) (59 км)
Погода в Зерноград (Ростовская область, Россия) (60 км)
Погода в Таганроге (Ростовская область, Россия) (70 км)
Погода в Матвеевом Кургане (Ростовская область, Россия) (78 км)
Погода в Семикаракорске (Ростовская область, Россия) (81 км)
Погода в Маргаритово (Ростовская область, Россия) (81 км)
Погода в Кущевской (Краснодарский край, Россия) (84 км)
Погода в Константиновске (Ростовская область, Россия) (102 км)
Погода в Староминская (Краснодарский край, Россия) (102 км)

Пояснения к столбцам:

Ветер - указаны скорость ветра в м/с - средняя за 10 мин, порывы в срок и между сроками (в фигурных скобках) и направление, откуда дует ветер: С - северный, СВ - северо-восточный, В - восточный, ЮВ - юго-восточный, Ю - южный, ЮЗ - юго-западный, З - западный, СЗ - северо-западный.
Видимость - горизонтальная дальность видимости в метрах или километрах. При видимости от 1 до 10 км при отсутствии осадков обычно наблюдается дымка, при ухудшении видимости до 1 км и менее - туман. В сухую погоду видимость может ухудшаться дымом, пылью или мглою.
Явления - указаны атмосферные явления, наблюдавшиеся в срок или в последний час перед сроком; фигурными скобками обозначены явления, наблюдавшиеся между сроками (за 1-3 часа до срока); квадратными скобками обозначены град или гололедные отложения с указанием их диаметра в мм.
Облачность - указаны через наклонную черту общая и нижняя облачность в баллах и высота нижней границы облаков в метрах; квадратными скобками обозначены формы облаков: Ci - перистые, Cs - перисто-слоистые, Cc - перисто-кучевые, Ac - высококучевые, As - высокослоистые, Sc - слоисто-кучевые, Ns - слоисто-дождевые, Cu - кучевые, Cb - кучево-дождевые. Подробнее классификацию облаков см. в Атласе облаков (PDF).
T - Температура воздуха - температура, измеренная на высоте 2 м над землей.
Td - Температура точки росы - температура, при понижении до которой содержащийся в воздухе водяной пар достигнет насыщения.
f - Относительная влажность воздуха - влажноcть воздуха, измеренная на высоте 2 м над землей.
Te - Эффективная температура - температура, которую ощущает одетый по сезону человек в тени. Характеристика душности погоды. При расчете учитывается влияние влажности воздуха и скорости ветра на теплоощущения человека.
Tes - Эффективная температура на солнце - температура, которую ощущает человек, с поправкой на солнечный нагрев. Характеристика знойности погоды. Зависит от высоты солнца над горизонтом, облачности и скорости ветра. Ночью, в пасмурную погоду, а также при ветре 12 м/с и более поправка равна нулю.
P - Атмосферное давление - приведенное к уровню моря атмосферное давление.
Po - Атмосферное давление - измеренное на уровне метеостанции атмосферное давление.
Tmin - Минимальная температура - минимум температуры воздуха на высоте 2 м над землей.
Tmax - Максимальная температура - максимум температуры воздуха на высоте 2 м над землей.
R - Количество осадков - Количество выпавших осадков за период времени, мм. При наведении курсора мыши на число - период времени, за который выпало указанное количество осадков.
R24 - Количество осадков - Количество выпавших осадков за 24 часа, мм.
S - Снежный покров - Высота снежного покрова, см. При наведении курсора мыши на число - состояние снежного покрова и степень покрытия местности в баллах.